Tracking 30102 objects as of 12-Dec-2024
HD Live streaming from Space Station
objects crossing your sky now

STARLINK-32491

Track STARLINK-32491 now!
10-day predictions
STARLINK-32491 is classified as:


NORAD ID: 62043
Int'l Code: 2024-216M
Perigee: 408.4 km
Apogee: 409.9 km
Inclination: 43.0 °
Period: 92.6 minutes
Semi major axis: 6780 km
RCS: Unknown
Launch date: November 21, 2024
Source: United States (US)
Launch site: AIR FORCE EASTERN TEST RANGE (AFETR)
Your satellite tracking list
Your tracking list is empty




NASA's NSSDC Master Catalog

Two Line Element Set (TLE):
1 62043U 24216M   24346.91667824 -.01467385  00000-0 -23825-1 0  9999
2 62043  42.9992 316.6596 0001172 255.3191 355.9431 15.55048461  4176
Source of the keplerian elements: AFSPC